, LA

(GMT )
Atlantis

Weather History for KATP - January, 2014

Change the Weather History Date:

Wednesday, January 8, 2014

  Actual Average Record
Temperature  
Mean Temperature 56 °F -  
Max Temperature 62 °F - - ()
Min Temperature 51 °F - - ()
Degree Days  
Heating Degree Days 8    
Growing Degree Days 6 (Base 50)    
Moisture  
Dew Point 43 °F    
Average Humidity 59    
Maximum Humidity 68    
Minimum Humidity 51    
Precipitation  
Precipitation 0.00 in - - ()
Sea Level Pressure  
Sea Level Pressure 30.40 in    
Wind  
Wind Speed 11 mph (East)    
Max Wind Speed 22 mph    
Max Gust Speed 24 mph    
Visibility 5 miles    
Events      
T = Trace of Precipitation, MM = Missing Value Source: NWS Daily Summary

Daily Weather History Graph

Daily Weather History Graph

Search for Another Location

Airport or City:

Trip Planner

Search our weather history database for the weather conditions in past years. The results will help you decide how hot, cold, wet, or windy it might be!

Date:

Astronomy

Jan. 08, 2014 Rise Set
Actual Time 6:51 AM CST 5:22 PM CST
Civil Twilight 6:25 AM CST 5:48 PM CST
Nautical Twilight 5:57 AM CST 6:16 PM CST
Astronomical Twilight 5:28 AM CST 6:45 PM CST
Moon 11:59 AM CST (1/8) 12:15 AM CST (1/8)
Length of Visible Light 11h 22m
Length of Day
10h 31m
First Quarter, 56% of the Moon is Illuminated
Jan 8
First Quarter
Jan 15
Full
Jan 23
Last Quarter
Jan 30
New
Feb 6
First Quarter

Hourly Weather History & Observations

Time (CST) Temp. Dew Point Humidity Pressure Visibility Wind Dir Wind Speed Gust Speed Precip Events Conditions
12:15 AM 51.8 °F 37.4 °F 58% 30.47 in 5.0 mi ENE 11.5 mph - N/A   Haze
12:35 AM 51.8 °F 39.2 °F 62% 30.47 in - East 11.5 mph - N/A   Overcast
12:55 AM 51.8 °F 37.4 °F 58% 30.46 in 5.0 mi East 8.1 mph - N/A   Haze
1:15 AM 51.8 °F 37.4 °F 58% 30.46 in 5.0 mi ESE 10.4 mph 17.3 mph N/A   Haze
1:35 AM 51.8 °F 37.4 °F 58% 30.45 in 5.0 mi East 9.2 mph - N/A   Haze
1:55 AM 51.8 °F 37.4 °F 58% 30.44 in 4.0 mi East 8.1 mph - N/A   Haze
2:15 AM 51.8 °F 37.4 °F 58% 30.44 in 4.0 mi East 9.2 mph - N/A   Haze
2:35 AM 51.8 °F 39.2 °F 62% 30.43 in 5.0 mi East 9.2 mph - N/A   Haze
2:55 AM 53.6 °F 39.2 °F 58% 30.43 in 4.0 mi East 10.4 mph - N/A   Haze
3:15 AM 53.6 °F 39.2 °F 58% 30.43 in 5.0 mi Variable 4.6 mph - N/A   Haze
3:35 AM 53.6 °F 39.2 °F 58% 30.43 in 5.0 mi ENE 9.2 mph - N/A   Haze
3:55 AM 53.6 °F 39.2 °F 58% 30.43 in 6.0 mi ENE 8.1 mph - N/A   Haze
4:15 AM 53.6 °F 39.2 °F 58% 30.42 in 5.0 mi East 9.2 mph - N/A   Haze
4:35 AM 53.6 °F 39.2 °F 58% 30.42 in 5.0 mi East 8.1 mph - N/A   Haze
4:55 AM 53.6 °F 39.2 °F 58% 30.42 in 5.0 mi East 10.4 mph - N/A   Haze
5:15 AM 53.6 °F 39.2 °F 58% 30.42 in 5.0 mi NNE 8.1 mph - N/A   Haze
5:35 AM 53.6 °F 39.2 °F 58% 30.42 in 5.0 mi NE 8.1 mph - N/A   Haze
5:55 AM 53.6 °F 39.2 °F 58% 30.42 in 5.0 mi ENE 10.4 mph - N/A   Haze
6:15 AM 53.6 °F 39.2 °F 58% 30.43 in 5.0 mi ENE 6.9 mph - N/A   Haze
6:35 AM 53.6 °F 39.2 °F 58% 30.43 in 5.0 mi ENE 11.5 mph - N/A   Haze
6:55 AM 53.6 °F 39.2 °F 58% 30.44 in 5.0 mi East 9.2 mph 17.3 mph N/A   Haze
7:15 AM 55.4 °F 39.2 °F 54% 30.45 in 5.0 mi ENE 9.2 mph - N/A   Haze
7:35 AM 55.4 °F 39.2 °F 54% 30.45 in 5.0 mi ENE 9.2 mph - N/A   Haze
7:55 AM 55.4 °F 39.2 °F 54% 30.46 in 6.0 mi Variable 4.6 mph - N/A   Haze
8:15 AM 55.4 °F 39.2 °F 54% 30.46 in 5.0 mi ENE 6.9 mph - N/A   Haze
8:35 AM 55.4 °F 41.0 °F 58% 30.46 in 5.0 mi NE 11.5 mph - N/A   Haze
8:55 AM 55.4 °F 39.2 °F 54% 30.47 in 5.0 mi ENE 8.1 mph - N/A   Haze
9:15 AM 55.4 °F 39.2 °F 54% 30.47 in 5.0 mi East 10.4 mph - N/A   Haze
9:35 AM 57.2 °F 39.2 °F 51% 30.47 in 5.0 mi ENE 8.1 mph 13.8 mph N/A   Haze
9:55 AM 57.2 °F 41.0 °F 55% 30.46 in 5.0 mi East 12.7 mph - N/A   Haze
10:15 AM 57.2 °F 41.0 °F 55% 30.46 in 5.0 mi East 11.5 mph - N/A   Haze
10:35 AM 57.2 °F 42.8 °F 59% 30.45 in 5.0 mi ENE 12.7 mph - N/A   Haze
10:55 AM 57.2 °F 42.8 °F 59% 30.44 in 5.0 mi NE 9.2 mph 16.1 mph N/A   Haze
11:15 AM 57.2 °F 42.8 °F 59% 30.43 in 5.0 mi ENE 13.8 mph - N/A   Haze
11:35 AM 57.2 °F 42.8 °F 59% 30.42 in 5.0 mi East 13.8 mph - N/A   Haze
11:55 AM 57.2 °F 42.8 °F 59% 30.41 in 5.0 mi East 15.0 mph - N/A   Haze
12:15 PM 57.2 °F 42.8 °F 59% 30.39 in 6.0 mi East 11.5 mph 17.3 mph N/A   Haze
12:35 PM 59.0 °F 42.8 °F 55% 30.37 in 6.0 mi East 16.1 mph - N/A   Haze
12:55 PM 59.0 °F 42.8 °F 55% 30.36 in 5.0 mi ENE 12.7 mph - N/A   Haze
1:15 PM 59.0 °F 42.8 °F 55% 30.36 in 5.0 mi East 10.4 mph 17.3 mph N/A   Haze
1:35 PM 59.0 °F 42.8 °F 55% 30.36 in 6.0 mi ESE 10.4 mph - N/A   Haze
1:55 PM 59.0 °F 42.8 °F 55% 30.36 in 5.0 mi East 8.1 mph 15.0 mph N/A   Haze
2:15 PM 59.0 °F 42.8 °F 55% 30.36 in 6.0 mi East 9.2 mph - N/A   Haze
2:35 PM 59.0 °F 44.6 °F 59% 30.36 in 5.0 mi East 11.5 mph - N/A   Haze
2:55 PM 59.0 °F 46.4 °F 63% 30.36 in 5.0 mi ENE 10.4 mph - N/A   Haze
3:15 PM 59.0 °F 46.4 °F 63% 30.36 in 5.0 mi East 13.8 mph - N/A   Haze
3:35 PM 59.0 °F 46.4 °F 63% 30.36 in 5.0 mi East 11.5 mph - N/A   Haze
3:55 PM 59.0 °F 46.4 °F 63% 30.36 in 5.0 mi ENE 13.8 mph - N/A   Haze
4:15 PM 59.0 °F 46.4 °F 63% 30.36 in 5.0 mi ENE 13.8 mph - N/A   Haze
4:35 PM 59.0 °F 46.4 °F 63% 30.35 in 4.0 mi ENE 15.0 mph - N/A   Haze
4:55 PM 59.0 °F 46.4 °F 63% 30.35 in 4.0 mi ENE 13.8 mph 20.7 mph N/A   Haze
5:15 PM 60.8 °F 46.4 °F 59% 30.36 in 5.0 mi East 13.8 mph - N/A   Haze
5:35 PM 60.8 °F 46.4 °F 59% 30.36 in 5.0 mi East 13.8 mph - N/A   Haze
5:55 PM 60.8 °F 48.2 °F 63% 30.36 in 4.0 mi East 16.1 mph - N/A   Haze
6:15 PM 60.8 °F 48.2 °F 63% 30.37 in 4.0 mi East 17.3 mph - N/A   Haze
6:35 PM 60.8 °F 48.2 °F 63% 30.36 in 4.0 mi East 15.0 mph - N/A   Haze
6:55 PM 60.8 °F 46.4 °F 59% 30.36 in 4.0 mi East 16.1 mph - N/A   Haze
7:15 PM 60.8 °F 46.4 °F 59% 30.37 in 9.0 mi East 18.4 mph - N/A   Overcast
7:35 PM 60.8 °F 48.2 °F 63% 30.37 in 10.0 mi ESE 17.3 mph - N/A   Overcast
7:55 PM 60.8 °F 46.4 °F 59% 30.37 in 8.0 mi ESE 18.4 mph - N/A   Overcast
8:15 PM 60.8 °F 46.4 °F 59% 30.38 in 4.0 mi ESE 17.3 mph - N/A   Haze
8:35 PM 60.8 °F 46.4 °F 59% 30.38 in 4.0 mi ESE 15.0 mph 21.9 mph N/A   Haze
8:55 PM 60.8 °F 48.2 °F 63% 30.37 in 4.0 mi ESE 18.4 mph - N/A   Haze
9:15 PM 62.6 °F 48.2 °F 59% 30.38 in 4.0 mi East 15.0 mph 20.7 mph N/A   Haze
9:35 PM 62.6 °F 48.2 °F 59% 30.37 in 4.0 mi ESE 18.4 mph - N/A   Haze
9:55 PM 62.6 °F 50.0 °F 63% 30.36 in 5.0 mi East 19.6 mph - N/A   Haze
10:15 PM 62.6 °F 50.0 °F 63% 30.36 in 4.0 mi ESE 20.7 mph - N/A   Haze
10:35 PM 62.6 °F 50.0 °F 63% 30.35 in 4.0 mi ESE 21.9 mph - N/A   Haze
10:55 PM 62.6 °F 51.8 °F 68% 30.35 in 4.0 mi ESE 19.6 mph - N/A   Haze
11:15 PM 62.6 °F 50.0 °F 63% 30.34 in 4.0 mi ESE 18.4 mph - N/A   Haze
11:35 PM 62.6 °F 51.8 °F 68% 30.33 in 4.0 mi ESE 19.6 mph - N/A   Haze
11:55 PM 62.6 °F 51.8 °F 68% 30.32 in 5.0 mi ESE 18.4 mph 24.2 mph N/A   Haze